| time (UTC) | temp F | wind direction | speed MPH | gust MPH | rain 1hr in | rain 24hr in | rain mn in | humidity % | barometer mb |
| 20260506221532 | 86 | 97 | 3.0 | 8.0 | 0.00 | 0.00 | 0.00 | 71 | 1007.8 |
| 20260506220040 | 85 | 90 | 5.0 | 9.0 | 0.00 | 0.00 | 0.00 | 69 | 1007.8 |
| 20260506214531 | 86 | 103 | 1.0 | 7.0 | 0.00 | 0.00 | 0.00 | 69 | 1007.8 |
| 20260506213030 | 86 | 116 | 2.0 | 6.0 | 0.00 | 0.00 | 0.00 | 68 | 1007.9 |
| 20260506211530 | 86 | 113 | 3.0 | 6.0 | 0.00 | 0.00 | 0.00 | 68 | 1008.2 |
| 20260506210030 | 85 | 109 | 2.0 | 7.0 | 0.00 | 0.00 | 0.00 | 69 | 1008.4 |
| 20260506204530 | 86 | 133 | 2.0 | 5.0 | 0.00 | 0.00 | 0.00 | 68 | 1008.5 |
| 20260506203027 | 85 | 134 | 2.0 | 7.0 | 0.00 | 0.00 | 0.00 | 70 | 1008.5 |
| 20260506201526 | 85 | 76 | 2.0 | 8.0 | 0.00 | 0.00 | 0.00 | 71 | 1008.9 |
| 20260506200025 | 84 | 103 | 1.0 | 7.0 | 0.00 | 0.00 | 0.00 | 72 | 1009.0 |
| 20260506194532 | 85 | 139 | 1.0 | 5.0 | 0.00 | 0.00 | 0.00 | 72 | 1009.1 |
| 20260506193024 | 85 | 135 | 3.0 | 8.0 | 0.00 | 0.00 | 0.00 | 74 | 1009.2 |
| 20260506191521 | 83 | 119 | 2.0 | 7.0 | 0.00 | 0.00 | 0.00 | 76 | 1009.2 |
| 20260506190020 | 83 | 74 | 3.0 | 7.0 | 0.00 | 0.00 | 0.00 | 76 | 1009.3 |
| 20260506184521 | 83 | 71 | 1.0 | 6.0 | 0.00 | 0.00 | 0.00 | 75 | 1009.7 |
| 20260506183018 | 83 | 102 | 1.0 | 9.0 | 0.00 | 0.00 | 0.00 | 76 | 1009.8 |
| 20260506181514 | 82 | 60 | 2.0 | 6.0 | 0.00 | 0.00 | 0.00 | 79 | 1009.9 |
| 20260506180014 | 82 | 86 | 3.0 | 7.0 | 0.00 | 0.00 | 0.00 | 79 | 1010.2 |
| 20260506174511 | 81 | 91 | 3.0 | 7.0 | 0.00 | 0.00 | 0.00 | 79 | 1010.2 |
| 20260506173009 | 80 | 99 | 1.0 | 6.0 | 0.00 | 0.00 | 0.00 | 81 | 1010.3 |
| 20260506171506 | 80 | 78 | 2.0 | 6.0 | 0.00 | 0.00 | 0.00 | 82 | 1010.2 |
| 20260506170004 | 79 | 65 | 1.0 | 5.0 | 0.00 | 0.00 | 0.00 | 83 | 1010.3 |
| 20260506164501 | 78 | 60 | 2.0 | 6.0 | 0.00 | 0.00 | 0.00 | 84 | 1010.3 |
| 20260506163100 | 78 | 80 | 3.0 | 7.0 | 0.00 | 0.00 | 0.00 | 85 | 1010.2 |
| 20260506161601 | 77 | 103 | 2.0 | 6.0 | 0.00 | 0.00 | 0.00 | 85 | 1010.0 |
| 20260506160110 | 77 | 103 | 3.0 | 6.0 | 0.00 | 0.00 | 0.00 | 86 | 1010.0 |
| 20260506154556 | 77 | 140 | 1.0 | 3.0 | 0.00 | 0.00 | 0.00 | 86 | 1009.7 |
| 20260506153055 | 77 | 140 | 1.0 | 3.0 | 0.00 | 0.00 | 0.00 | 86 | 1009.6 |
| 20260506151554 | 77 | 140 | 1.0 | 3.0 | 0.00 | 0.00 | 0.00 | 86 | 1009.5 |
| 20260506150052 | 76 | 140 | 2.0 | 3.0 | 0.00 | 0.00 | 0.00 | 87 | 1009.3 |
| 20260506144551 | 76 | 140 | 1.0 | 3.0 | 0.00 | 0.00 | 0.00 | 87 | 1009.1 |
| 20260506143048 | 76 | 140 | 1.0 | 3.0 | 0.00 | 0.00 | 0.00 | 88 | 1008.8 |
| 20260506141545 | 76 | 140 | 0.0 | 4.0 | 0.00 | 0.00 | 0.00 | 88 | 1008.7 |
| 20260506140044 | 75 | 141 | 4.0 | 8.0 | 0.00 | 0.00 | 0.00 | 88 | 1008.4 |
| 20260506134547 | 75 | 140 | 2.0 | 9.0 | 0.00 | 0.00 | 0.00 | 89 | 1008.3 |
| 20260506133042 | 75 | 144 | 1.0 | 4.0 | 0.00 | 0.00 | 0.00 | 89 | 1008.1 |
| 20260506131556 | 74 | 147 | 2.0 | 6.0 | 0.00 | 0.00 | 0.00 | 89 | 1008.0 |
| 20260506130049 | 74 | 155 | 1.0 | 5.0 | 0.00 | 0.00 | 0.00 | 89 | 1007.9 |
| 20260506124541 | 74 | 157 | 1.0 | 5.0 | 0.00 | 0.00 | 0.00 | 89 | 1007.8 |
| 20260506123041 | 73 | 158 | 1.0 | 3.0 | 0.00 | 0.00 | 0.00 | 89 | 1008.0 |
| 20260506121540 | 73 | 158 | 0.0 | 1.0 | 0.00 | 0.00 | 0.00 | 89 | 1008.0 |
| 20260506120040 | 73 | 158 | 0.0 | 0.0 | 0.00 | 0.00 | 0.00 | 89 | 1007.8 |
| 20260506114538 | 73 | 158 | 0.0 | 0.0 | 0.00 | 0.00 | 0.00 | 88 | 1007.8 |
| 20260506113037 | 73 | 158 | 0.0 | 0.0 | 0.00 | 0.00 | 0.00 | 88 | 1007.8 |
| 20260506111536 | 73 | 158 | 0.0 | 3.0 | 0.00 | 0.00 | 0.00 | 88 | 1007.6 |
| 20260506110035 | 74 | 159 | 0.0 | 5.0 | 0.00 | 0.00 | 0.00 | 88 | 1007.6 |
| 20260506104534 | 74 | 159 | 1.0 | 3.0 | 0.00 | 0.00 | 0.00 | 88 | 1007.6 |
| 20260506103038 | 74 | 159 | 0.0 | 5.0 | 0.00 | 0.00 | 0.00 | 87 | 1007.5 |
| 20260506101531 | 75 | 161 | 0.0 | 6.0 | 0.00 | 0.00 | 0.00 | 87 | 1007.4 |
| 20260506100035 | 75 | 129 | 0.0 | 4.0 | 0.00 | 0.00 | 0.00 | 87 | 1007.6 |
| 20260506094535 | 75 | 123 | 1.0 | 3.0 | 0.00 | 0.00 | 0.00 | 87 | 1007.8 |
| 20260506093034 | 75 | 123 | 1.0 | 4.0 | 0.00 | 0.00 | 0.00 | 87 | 1007.8 |
| 20260506091528 | 75 | 146 | 1.0 | 3.0 | 0.00 | 0.00 | 0.00 | 87 | 1007.7 |
| 20260506090025 | 75 | 147 | 2.0 | 6.0 | 0.00 | 0.00 | 0.00 | 86 | 1007.7 |
| 20260506084524 | 76 | 157 | 1.0 | 6.0 | 0.00 | 0.00 | 0.00 | 86 | 1007.8 |
| 20260506083023 | 76 | 175 | 1.0 | 5.0 | 0.00 | 0.00 | 0.00 | 86 | 1007.8 |
| 20260506081528 | 76 | 155 | 2.0 | 4.0 | 0.00 | 0.00 | 0.00 | 86 | 1007.9 |
| 20260506073019 | 76 | 157 | 3.0 | 8.0 | 0.00 | 0.00 | 0.00 | 86 | 1008.0 |
| 20260506071520 | 76 | 145 | 1.0 | 9.0 | 0.00 | 0.00 | 0.00 | 86 | 1008.1 |
| 20260506061514 | 76 | 123 | 4.0 | 9.0 | 0.00 | 0.00 | 0.00 | 85 | 1007.9 |
| 20260506044559 | 77 | 132 | 3.0 | 11.0 | 0.00 | 0.00 | 0.00 | 85 | 1007.9 |
| 20260506043049 | 77 | 136 | 2.0 | 10.0 | 0.00 | 0.00 | 0.00 | 85 | 1007.9 |
| 20260506041550 | 78 | 134 | 2.0 | 7.0 | 0.00 | 0.00 | 0.00 | 84 | 1007.8 |
| 20260506040048 | 78 | 104 | 4.0 | 8.0 | 0.00 | 0.00 | 0.00 | 83 | 1007.4 |
| 20260506034547 | 79 | 123 | 5.0 | 10.0 | 0.00 | 0.00 | 0.00 | 82 | 1007.1 |
| 20260506033046 | 80 | 132 | 5.0 | 10.0 | 0.00 | 0.00 | 0.00 | 82 | 1007.3 |
| 20260506031550 | 80 | 151 | 3.0 | 9.0 | 0.00 | 0.00 | 0.00 | 81 | 1007.2 |
| 20260506030045 | 80 | 126 | 3.0 | 9.0 | 0.00 | 0.00 | 0.00 | 82 | 1006.9 |
| 20260506024553 | 80 | 108 | 3.0 | 8.0 | 0.00 | 0.00 | 0.00 | 81 | 1006.6 |
| 20260506023044 | 81 | 98 | 3.0 | 8.0 | 0.00 | 0.00 | 0.00 | 81 | 1006.5 |
| 20260506021544 | 81 | 84 | 4.0 | 11.0 | 0.00 | 0.00 | 0.00 | 80 | 1006.2 |
| 20260506020044 | 82 | 99 | 4.0 | 10.0 | 0.00 | 0.00 | 0.00 | 79 | 1005.8 |
| 20260506014544 | 82 | 90 | 5.0 | 10.0 | 0.00 | 0.00 | 0.00 | 78 | 1005.6 |
| 20260506013043 | 83 | 100 | 3.0 | 7.0 | 0.00 | 0.00 | 0.00 | 77 | 1005.3 |
| 20260506011543 | 84 | 101 | 3.0 | 8.0 | 0.00 | 0.00 | 0.00 | 76 | 1005.2 |
| 20260506010043 | 84 | 98 | 3.0 | 11.0 | 0.00 | 0.00 | 0.00 | 74 | 1005.0 |
| 20260506004541 | 85 | 71 | 2.0 | 10.0 | 0.00 | 0.00 | 0.00 | 73 | 1004.6 |
| 20260506003040 | 87 | 96 | 4.0 | 8.0 | 0.00 | 0.00 | 0.00 | 70 | 1004.6 |
| 20260506001541 | 88 | 102 | 2.0 | 8.0 | 0.00 | 0.00 | 0.00 | 70 | 1004.8 |
| 20260506000040 | 87 | 101 | 4.0 | 9.0 | 0.00 | 0.00 | 0.00 | 69 | 1004.6 |
| 20260505234538 | 88 | 115 | 2.0 | 6.0 | 0.00 | 0.00 | 0.00 | 68 | 1004.6 |
| 20260505233036 | 88 | 115 | 2.0 | 8.0 | 0.00 | 0.00 | 0.00 | 68 | 1004.7 |
| 20260505231544 | 88 | 120 | 2.0 | 7.0 | 0.00 | 0.00 | 0.00 | 69 | 1004.6 |
| 20260505230049 | 88 | 125 | 3.0 | 9.0 | 0.00 | 0.00 | 0.00 | 68 | 1004.5 |
| 20260505224533 | 88 | 134 | 4.0 | 8.0 | 0.00 | 0.00 | 0.00 | 68 | 1004.5 |
| 20260505223033 | 88 | 89 | 6.0 | 11.0 | 0.00 | 0.00 | 0.00 | 67 | 1004.6 |